Location: Newark
(41.9364°N, 2.8061°E)
Time: 10:40:54
(UTC+00:00)

Transit 4A - All Passes

Search period start: 17 February 2020 00:00
Search period end: 27 February 2020 00:00
Orbit: 872 x 973 km, 66.8° (Epoch: 16 February)

Date Brightness Start Highest point End Pass type
(mag) Time Alt. Az. Time Alt. Az. Time Alt. Az.
17 Feb - 00:47:07 10° SSW 00:53:00 65° ESE 00:58:49 10° NE night (unlit)
17 Feb - 02:35:04 10° W 02:39:48 24° NW 02:44:31 10° N visible
17 Feb - 08:04:22 10° N 08:07:53 16° NE 08:11:25 10° ENE daylight
17 Feb - 09:49:23 10° NNW 09:55:15 74° ENE 10:01:11 10° SE daylight
17 Feb - 11:37:18 10° WNW 11:40:55 17° WSW 11:44:35 10° SW daylight
17 Feb - 23:13:46 10° SE 23:16:45 14° ESE 23:19:42 10° ENE night (unlit)
18 Feb - 00:56:19 10° SSW 01:02:17 86° WNW 01:08:11 10° NNE visible
18 Feb - 02:45:33 10° W 02:49:29 18° NW 02:53:26 10° N visible
18 Feb - 08:13:12 10° N 08:17:37 21° NE 08:22:02 10° E daylight
18 Feb - 09:58:43 10° NNW 10:04:34 76° WSW 10:10:30 10° SSE daylight
18 Feb - 11:49:06 10° W 11:49:55 10° W 11:50:44 10° WSW daylight
18 Feb - 23:21:20 10° SSE 23:25:47 22° ESE 23:30:11 10° ENE night (unlit)
19 Feb - 01:05:48 10° SW 01:11:40 60° WNW 01:17:28 10° NNE visible
19 Feb - 02:56:27 10° WNW 02:59:16 13° NW 03:02:06 10° N visible
19 Feb - 08:22:11 10° NNW 08:27:14 29° NE 08:32:20 10° ESE daylight
19 Feb - 10:08:11 10° NW 10:13:49 51° WSW 10:19:32 10° S daylight
19 Feb - 23:29:38 10° S 23:34:54 33° ESE 23:40:06 10° NE night (unlit)
20 Feb - 01:15:32 10° WSW 01:21:07 41° NW 01:26:39 10° NNE visible
20 Feb - 03:08:39 10° NW 03:09:09 10° NNW 03:09:38 10° NNW visible
20 Feb - 08:31:16 10° NNW 08:36:47 41° NE 08:42:20 10° ESE daylight
20 Feb - 10:17:48 10° NW 10:23:00 34° WSW 10:28:17 10° S daylight
20 Feb - 23:38:21 10° S 23:44:04 50° ESE 23:49:44 10° NE night (unlit)
21 Feb - 01:25:31 10° WSW 01:30:39 30° NW 01:35:44 10° NNE visible
21 Feb - 06:55:51 10° N 06:58:36 13° NE 07:01:21 10° ENE daylight
21 Feb - 08:40:27 10° NNW 08:46:13 58° NE 08:52:04 10° SE daylight
21 Feb - 10:27:41 10° WNW 10:32:07 22° WSW 10:36:35 10° SSW daylight
21 Feb - 22:07:35 10° ESE 22:07:59 10° E 22:08:24 10° E night (unlit)
21 Feb - 23:47:24 10° SSW 23:53:19 75° ESE 23:59:11 10° NNE night (unlit)
22 Feb - 01:35:47 10° W 01:40:17 22° NW 01:44:43 10° N visible
22 Feb - 07:04:30 10° N 07:08:23 18° NE 07:12:17 10° E daylight
22 Feb - 08:49:43 10° NNW 08:55:36 85° ENE 09:01:34 10° SSE daylight
22 Feb - 10:38:08 10° WNW 10:41:09 14° WSW 10:44:12 10° SW daylight
22 Feb - 22:13:22 10° SE 22:16:59 17° ESE 22:20:34 10° ENE night (unlit)
22 Feb - 23:56:41 10° SW 00:02:39 76° WNW 00:08:31 10° NNE night (unlit)
23 Feb - 01:46:25 10° WNW 01:49:59 16° NW 01:53:33 10° N visible
23 Feb - 07:13:24 10° N 07:18:04 24° NE 07:22:46 10° E daylight
23 Feb - 08:59:05 10° NW 09:04:53 66° WSW 09:10:47 10° SSE daylight
23 Feb - 22:21:16 10° SSE 22:26:03 26° ESE 22:30:46 10° NE night (unlit)
24 Feb - 00:06:16 10° SW 00:12:02 52° NW 00:17:45 10° NNE night (unlit)
24 Feb - 01:57:32 10° NW 01:59:48 12° NNW 02:02:04 10° N visible
24 Feb - 07:22:25 10° NNW 07:27:40 33° NE 07:32:57 10° ESE daylight
24 Feb - 09:08:35 10° NW 09:14:07 44° WSW 09:19:44 10° S daylight
24 Feb - 22:29:44 10° S 22:35:11 39° ESE 22:40:33 10° NE night (unlit)
25 Feb - 00:16:06 10° WSW 00:21:31 36° NW 00:26:54 10° NNE night (unlit)
25 Feb - 05:47:39 10° NNE 05:49:16 11° NNE 05:50:54 10° NE visible
25 Feb - 07:31:32 10° NNW 07:37:10 46° NE 07:42:52 10° SE daylight
25 Feb - 09:18:18 10° NW 09:23:16 29° WSW 09:28:18 10° SSW daylight
25 Feb - 22:38:34 10° SSW 22:44:23 58° ESE 22:50:07 10° NE night (unlit)
26 Feb - 00:26:11 10° WSW 00:31:05 26° NW 00:35:58 10° N visible
26 Feb - 05:55:53 10° N 05:59:07 15° NE 06:02:21 10° ENE visible
26 Feb - 07:40:44 10° NNW 07:46:35 67° ENE 07:52:31 10° SE daylight
26 Feb - 09:28:19 10° WNW 09:32:21 19° WSW 09:36:26 10° SSW daylight
26 Feb - 21:05:57 10° SE 21:08:12 12° ESE 21:10:27 10° E night (unlit)
26 Feb - 22:47:42 10° SSW 22:53:39 86° ESE 22:59:32 10° NNE night (unlit)
